User: anonymous   Login
Location: Newark
(44.9000°N, 9.6000°E)
Time: 15:25:15
(UTC+00:00)
Language:

ISS - Orbit

View from above orbital plane
View from above orbital plane
View from above satellite
View from above satellite

Ground track
Ground track

The orbit data is extracted from the following two-line orbital elements,

1 25544U 98067A   20048.77828515  .00016717  00000-0  10270-3 0  9093
2 25544  51.6418 224.2439 0005062 280.2872  79.7707 15.49173062 13341
Epoch (UTC): 17 February 2020 18:40:43
Eccentricity: 0.0005062
inclination: 51.6418°
perigee height: 416 km
apogee height: 422 km
right ascension of ascending node: 224.2439°
argument of perigee: 280.2872°
revolutions per day: 15.49173062
mean anomaly at epoch: 79.7707°
orbit number at epoch: 1334

The dashed part of the orbit path shows where the satellite is in the earth's shadow,  

DLR